Regional Weather Roundup
Issued by NWS

Home | Current Version | Previous Version | Text Only | Print | Product List | Glossary On
Versions: 1 2 3 4 5 6 7 8 9 10 11 12 13 14 15 16 17 18 19 20 21 22 23 24 25 26 27
000
ASUS44 KLIX 261913
RWRLA
LOUISIANA WEATHER ROUNDUP
NATIONAL WEATHER SERVICE NEW ORLEANS LA
200 PM CDT SUN MAR 26 2017

NOTE: "FAIR" INDICATES FEW OR NO CLOUDS BELOW 12,000 FEET WITH NO
      SIGNIFICANT WEATHER AND/OR OBSTRUCTIONS TO VISIBILITY.
      SKY/WX - SKY CONDITION AND SIGNIFICANT WEATHER.
      TMP - AIR TEMPERATURE.    DP   - DEWPOINT TEMPERATURE.
      RH  - RELATIVE HUMIDITY.  PRES - PRESSURE.
      HX  - HEAT INDEX.         WCI  - WIND CHILL INDEX.

*  THESE STATIONS ARE NOT NWS OR FAA STATIONS AND ARE NOT UNDER
   NWS QUALITY CONTROL.

LAZ040-048-061>063-065-066-069-262000-
SOUTHEAST LOUISIANA

CITY           SKY/WX    TMP DP  RH WIND       PRES   REMARKS
N.O. INTL ARPT MOSUNNY   81  67  62 S12       30.02F
N.O. LAKEFRONT PTSUNNY   80  67  64 SE9       30.02F
N.O. DOWNTOWN*   N/A     80  66  62 SW8       30.03F
RESERVE*       MOCLDY    83  65  54 S8        30.01F
SLIDELL        PTSUNNY   80  64  58 S7        30.02F
BATON ROUGE    PTSUNNY   80  63  55 SW5       30.00F
BOOTHVILLE     SUNNY     78  68  71 SW6       30.06F
BELLE CHASSE   PTSUNNY   81  68  64 S10       30.03F
BOGALUSA*      NOT AVBL
GALLIANO*      MOCLDY    79  64  60 S10       30.04F
NEW ROADS*       N/A     79  66  63 S8        30.00F
GONZALES*      FAIR      82  66  58 S7        30.00F
HAMMOND*       MOSUNNY   81  61  50 S7        30.01F
HOUMA*         NOT AVBL
PORT FOURCHON* MOCLDY    75  68  78 VRB6G13   30.04F

$$

LAZ041-044-053-054-262000-
SOUTHWEST LOUISIANA

CITY           SKY/WX    TMP DP  RH WIND       PRES   REMARKS
LAKE CHARLES   MOSUNNY   79  65  62 S13G18    29.96F
LAFAYETTE      PTSUNNY   83  66  56 S12       29.99F
PATTERSON      MOSUNNY   80  68  66 S12       30.02F
SALT POINT       N/A     77  69  76 VRB6      30.01F
NEW IBERIA     MOSUNNY   81  64  56 S15       30.00F
CHENAULT AIRPK MOSUNNY   81  66  61 S10G17    29.97F

$$

LAZ027-028-262000-
CENTRAL LOUISIANA

CITY           SKY/WX    TMP DP  RH WIND       PRES   REMARKS
FORT POLK      MOSUNNY   80  78  93 S16       29.94F
ALEXANDRIA INT PTSUNNY   78  64  61 SE13      29.94F
ALEXANDRIA     PTSUNNY   79  64  60 SE8G16    29.97F

$$

LAZ001-002-262000-
NORTHWEST LOUISIANA

CITY           SKY/WX    TMP DP  RH WIND       PRES   REMARKS
SHREVEPORT     MOSUNNY   83  57  41 S12G25    29.91F
BARKSDALE AFB  SUNNY     80  58  47 S10       29.91F
DTN SHREVEPORT SUNNY     81  58  45 SE14      29.92F

$$

LAZ014-016-262000-
NORTHEAST LOUISIANA

CITY           SKY/WX    TMP DP  RH WIND       PRES   REMARKS
MONROE         SUNNY     78  56  46 S8        29.97F
TALLULAH       MOSUNNY   80  59  48 VRB6      29.98F

$$





USA.gov is the U.S. government's official web portal to all federal, state and local government web resources and services.